Погода в Эз-Завии

Ливия     32°45′37″N   12°43′34″E
темп.,
°C
ветер,
м/с
пор.,
м/с
влажн.,
%
обл.,
%
осадки,
мм/ч
давл.,
гПа
погр.,
м
10 августа, ср
ср1023:00+28всв34650 0.0 1016410
02:00+28юв12660 0.0 1014218
05:00+27св12700 0.0 1014329
08:00+27всв12700 0.0 1015482
11:00+29с43590 0.0 1016824
14:00+30с44550 0.0 1015776
17:00+29с55580 0.0 1014756
20:00+28ссв34640 0.0 1014682
11 августа, чт
чт1123:00+28в44640 0.0 1014531
02:00+27вюв45650 0.0 1014352
05:00+26юв33640 0.0 1013210
08:00+26всв22580 0.0 1014221
11:00+29ссв33570 0.0 1015616
14:00+30ссв44540 0.0 1014648
17:00+30ссв55550 0.0 1013662
20:00+29св45630 0.0 1013582
12 августа, пт
пт1223:00+28в44620 0.0 1013412
02:00+27вюв23640 0.0 1012250
05:00+27св22650 0.0 1012274
08:00+27ссв22650 0.0 1013551
11:00+29ссз33580 0.0 1014829
14:00+29с55560 0.0 1013804
17:00+29с66560 0.0 1013776
20:00+28ссв56590 0.0 1013620
13 августа, сб
сб1323:00+28всв34600 0.0 1014608
02:00+27вюв33630 0.0 1013374
05:00+26ююв22680 0.0 1014256
08:00+27с11650 0.0 1015366
11:00+28с32580 0.0 1016698
14:00+30с44500 0.0 1015655
17:00+30ссв44480 0.0 1014615
20:00+29всв44540 0.0 1014410
14 августа, вс
вс1423:00+28юв45560 0.0 1014253
02:00+28ююв45520 0.0 1013143
05:00+28з11470 0.0 101228
08:00+28юз34400 0.0 1013153
11:00+33зюз34270 0.0 1013468
14:00+35ссз45260 0.0 1011853
17:00+34с57320 0.0 1010309
20:00+31ссв57530 0.0 1011272